GFSNGP_925_rhum_207.txt.gz
RH
50 48 59 51 46 62 68 50 59 42 67 38 46 56 50 48 47 46 47 48 53 55 60 50 49 45 43 43 45 46 48 48 45 43 43 43 43 42 39 38 33 31 29 26
58 51 58 56 56 53 55 48 54 44 49 37 38 44 51 52 50 50 50 46 46 50 54 53 51 50 44 42 41 43 44 46 46 47 48 46 47 48 44 42 38 35 32 30
73 61 59 67 58 49 55 56 50 58 47 43 47 46 48 55 58 58 54 52 51 50 49 48 46 47 47 44 46 48 51 50 52 51 53 51 53 54 51 46 42 40 36 35
84 57 70 36 36 47 47 51 54 48 50 50 49 49 48 62 67 65 65 65 62 59 56 51 49 50 51 54 59 62 64 63 62 61 60 59 61 58 55 51 46 44 40 38
84 89 62 41 43 58 54 66 58 62 64 62 61 50 48 74 81 89 87 85 83 78 72 70 72 65 58 57 59 60 62 60 58 58 59 61 66 63 57 54 50 46 43 42
88 92 89 50 45 41 40 83 70 72 82 81 68 83 69 89 90 91 94 98 99 86 82 79 77 66 66 66 65 66 60 61 64 66 72 75 74 72 69 63 56 50 44 42
72 78 77 54 52 43 60 70 86 83 84 87 86 82 90 84 79 79 82 87 94 98 94 93 86 79 83 84 79 70 64 60 65 69 69 70 73 66 62 58 55 54 52 50
79 88 85 80 60 53 84 83 90 92 88 86 83 78 73 71 76 76 84 88 92 98 97 100 92 86 88 87 81 73 65 56 59 53 54 64 69 69 82 89 88 73 67 56
69 75 91 93 93 95 96 93 95 90 79 80 78 79 79 83 83 86 85 87 85 91 82 69 72 78 79 69 69 66 62 57 54 57 54 45 47 40 43 46 51 50 52 51
91 90 93 98 100 100 99 93 76 75 80 80 85 80 80 80 80 82 79 82 78 82 83 73 54 59 66 64 63 63 61 57 55 52 50 47 45 44 38 39 45 48 49 52
82 97 99 99 91 78 79 77 78 76 78 80 83 76 77 81 79 74 71 64 62 71 72 63 49 49 44 45 55 61 57 55 54 52 53 54 52 51 48 38 42 48 49 56
72 90 90 99 91 75 74 76 78 79 77 70 75 78 77 81 75 75 71 64 69 63 61 51 47 46 40 38 45 55 62 64 58 63 59 61 61 56 43 48 56 60 74 79
96 90 91 75 75 74 73 73 71 78 80 88 79 80 79 80 70 71 68 66 65 61 57 55 49 44 35 35 41 46 58 59 62 68 68 70 68 66 69 59 55 56 65 77
78 80 78 76 68 76 81 78 74 70 68 70 70 67 67 72 66 67 67 64 64 64 60 59 55 49 40 40 44 50 54 57 69 68 64 66 67 70 73 78 80 77 69 75
74 79 84 88 90 86 72 69 74 74 74 74 70 74 75 79 78 76 74 73 72 68 64 59 56 51 47 48 52 55 57 60 60 62 65 69 72 76 78 83 85 82 82 83
92 90 86 80 71 71 74 79 82 79 73 70 73 73 73 76 79 79 79 78 79 67 61 61 59 54 53 53 54 57 57 58 69 70 70 73 75 78 81 84 86 85 89 91
90 82 84 88 90 88 87 87 89 88 79 75 65 59 59 62 64 65 65 61 59 60 60 61 58 56 56 56 58 61 64 68 73 73 74 75 78 80 84 88 92 91 93 90
81 84 84 86 85 80 70 65 66 63 62 59 60 62 64 66 68 66 66 67 67 66 66 65 62 61 63 65 66 68 72 77 80 83 83 85 87 88 93 94 95 96 96 95
50 56 55 56 57 62 64 64 64 63 64 65 68 69 68 70 72 72 72 74 75 75 73 70 70 74 73 73 78 80 83 85 89 90 91 92 92 93 95 94 94 98 99 99
60 60 62 65 64 67 70 68 69 72 73 74 75 74 75 76 77 79 80 82 81 80 78 81 82 84 83 81 82 87 89 92 96 98 99 96 94 98 99 98 98 99 99 99
71 69 72 74 75 76 78 78 80 82 79 80 80 80 82 84 86 87 90 88 80 81 83 84 86 86 86 90 94 95 97 99 99 94 92 95 98 98 99 99 99 100 97 100
79 83 84 84 86 87 84 83 85 87 88 88 89 90 92 92 92 94 92 92 87 85 87 92 95 96 97 93 99 99 100 98 98 98 97 99 98 98 98 100 100 100 100 98
84 86 86 86 86 88 91 89 87 90 95 96 97 97 97 96 97 96 88 81 86 94 97 98 98 96 87 96 98 97 97 97 98 100 98 98 100 99 100 99 98 100 99 99
90 87 88 88 90 96 94 85 86 90 96 90 92 94 100 96 92 85 84 90 94 94 97 95 91 92 86 90 91 95 96 97 99 100 100 98 99 98 98 100 100 100 100 100
89 92 92 93 91 87 88 86 93 83 79 78 81 81 79 81 88 93 98 98 96 94 99 96 88 92 94 95 95 94 96 97 100 98 98 98 98 97 98 100 100 100 99 98
92 92 91 87 91 88 87 90 92 87 81 82 84 82 83 90 89 89 98 98 98 96 97 97 99 99 98 95 98 99 98 100 97 96 97 97 97 98 99 98 97 97 98 97
88 82 89 85 83 83 87 91 87 88 88 93 92 91 91 90 89 89 92 99 100 98 98 97 97 98 98 99 98 97 97 96 97 97 97 96 96 96 96 96 96 96 96 96

GFSNGP_925_rhum_210.txt.gz
RH
42 44 56 49 47 65 61 48 52 46 62 40 43 56 49 51 54 57 57 56 57 60 60 56 55 52 50 50 49 51 51 52 48 47 47 46 44 44 44 44 42 40 37 34
54 49 53 59 57 53 58 50 48 43 49 44 46 54 60 64 65 66 68 68 68 67 65 62 64 64 59 57 53 52 55 58 60 60 58 55 53 52 52 51 49 46 42 38
65 61 59 68 60 51 54 57 51 57 47 48 50 59 67 74 78 82 84 83 82 80 78 79 79 74 66 63 63 66 69 69 68 67 64 61 62 63 62 61 58 54 49 45
82 56 75 37 39 46 52 54 55 54 57 56 55 64 82 87 96 98 97 96 95 88 86 85 73 69 68 64 62 61 61 64 66 65 66 66 66 68 68 69 66 62 57 52
83 89 63 45 47 58 56 63 62 65 66 73 66 60 81 95 90 88 85 86 91 100 94 95 90 80 72 70 68 64 63 63 66 68 70 71 75 83 84 85 84 85 84 80
89 89 84 51 46 46 48 71 73 79 84 80 73 83 86 86 75 75 76 83 86 91 89 84 80 77 79 84 80 79 74 74 71 61 66 74 77 79 80 77 72 67 65 64
73 82 74 54 56 53 65 70 86 85 90 92 89 92 83 74 78 78 81 84 80 72 78 74 72 69 69 67 70 68 65 60 56 58 57 52 58 60 60 57 70 80 86 86
82 91 87 92 66 57 85 92 94 92 83 82 77 73 79 77 78 78 80 78 76 81 75 64 62 68 70 66 62 64 63 60 58 56 54 55 54 49 46 49 55 51 53 50
70 73 95 95 91 89 87 88 98 100 99 86 73 76 73 76 75 75 72 68 61 67 66 46 42 49 61 43 44 52 60 58 53 48 48 48 47 46 51 48 51 48 48 49
85 94 95 99 100 100 99 100 93 81 76 76 76 74 72 73 74 74 67 66 61 66 69 63 51 47 41 38 36 44 50 50 50 49 50 49 48 49 52 54 54 54 55 56
100 100 100 99 91 87 81 75 74 73 75 75 76 72 72 74 74 71 69 65 64 66 67 63 55 53 52 45 39 43 46 47 49 51 51 53 54 56 60 55 64 67 65 66
85 97 96 97 90 74 76 78 74 72 71 70 74 79 77 81 74 72 72 69 69 67 67 64 62 54 47 50 48 46 50 56 57 66 63 64 64 58 47 56 59 71 72 75
97 96 97 98 76 72 68 69 69 74 75 81 74 73 74 76 69 71 68 68 70 68 68 69 66 62 50 45 48 50 57 59 62 68 69 73 72 76 79 59 59 65 74 74
99 89 93 78 72 79 83 75 72 68 67 67 66 66 70 75 71 76 77 72 74 76 76 75 72 66 53 51 53 54 55 57 70 66 65 68 70 73 76 81 84 81 72 78
78 81 88 90 86 82 70 72 76 73 72 72 64 71 75 80 77 72 71 75 76 81 83 74 70 66 62 60 60 62 63 64 63 62 67 73 77 80 83 85 90 87 83 83
89 88 86 81 80 75 75 70 78 75 72 68 70 67 64 64 64 64 65 66 69 70 69 70 68 66 66 66 65 67 67 71 74 75 76 78 80 82 87 90 89 90 90 87
76 68 77 72 77 76 72 73 78 83 77 75 66 63 64 66 68 69 68 68 70 71 72 73 72 70 70 70 70 71 74 74 77 78 81 82 85 88 89 90 92 92 92 89
62 70 66 72 76 74 71 67 67 68 70 66 67 70 72 74 76 73 73 75 77 78 78 75 74 75 79 81 80 85 92 88 87 89 89 92 93 94 96 97 98 98 98 97
59 64 66 66 67 72 74 75 74 72 73 74 77 78 78 79 79 79 80 83 84 86 83 77 80 86 86 85 90 93 100 99 99 95 95 96 96 96 97 98 99 98 97 98
70 68 70 73 74 76 79 79 80 82 83 84 84 85 85 84 83 86 88 91 91 90 86 86 86 89 87 85 94 94 95 97 98 98 99 95 92 95 97 98 96 99 100 99
77 79 81 83 83 86 86 86 90 92 89 91 92 91 92 93 94 95 95 88 82 86 85 85 87 89 95 98 98 99 98 99 100 99 94 96 98 97 98 98 98 98 100 94
86 90 92 91 92 93 89 92 92 94 94 96 96 96 94 90 91 95 94 94 88 86 89 98 98 98 98 98 98 97 95 95 95 95 97 94 98 97 97 97 98 99 99 99
91 92 91 90 92 94 95 89 88 90 93 99 97 87 89 92 94 90 85 81 88 98 97 97 94 90 88 98 88 92 94 96 98 100 100 99 99 99 98 98 98 100 97 96
92 91 93 93 92 97 94 87 90 90 88 84 82 81 85 89 86 84 86 91 91 94 95 94 93 87 87 91 91 95 95 97 98 98 99 100 98 99 97 96 96 96 96 99
93 95 94 95 96 90 89 88 89 89 92 86 83 81 83 84 87 92 99 97 96 95 99 98 96 96 96 97 98 97 100 100 100 99 97 98 98 97 97 97 97 97 98 98
97 95 95 91 93 92 90 91 91 95 85 84 85 85 85 91 95 95 97 95 98 97 96 97 99 98 97 96 98 98 98 97 97 98 98 96 96 96 96 96 96 96 96 96
88 83 92 92 86 86 89 90 90 90 89 94 95 92 94 94 94 92 94 98 100 97 97 97 97 99 99 98 96 96 96 96 97 97 96 97 97 97 97 97 97 97 97 97

GFSNGP_925_rhum_213.txt.gz
RH
37 32 51 46 46 63 58 40 51 38 59 39 53 69 61 60 64 68 73 76 76 78 76 76 78 79 74 72 68 64 64 65 66 64 61 58 55 53 51 49 49 48 46 44
46 44 55 53 52 59 52 43 48 40 44 40 45 62 70 73 75 83 86 88 82 79 80 80 79 84 78 69 64 66 70 73 73 72 71 70 68 66 65 62 60 59 56 53
64 57 59 66 53 45 54 60 51 54 42 49 63 71 80 88 92 96 94 90 91 89 89 91 90 80 73 67 62 60 61 63 65 67 69 71 71 70 69 69 69 68 64 61
74 58 71 38 42 46 50 52 55 50 56 58 64 91 93 91 91 89 85 83 84 91 96 93 80 77 76 75 73 72 71 71 70 70 68 66 67 70 70 71 76 81 81 78
79 84 60 42 52 57 54 56 62 62 75 74 89 86 92 80 78 81 80 81 83 89 86 78 74 68 62 61 60 60 62 60 59 60 59 58 58 67 71 74 73 72 69 69
88 87 80 48 49 48 48 62 76 79 85 81 75 80 92 75 77 78 82 83 82 74 70 63 61 57 54 56 57 62 61 58 56 56 55 55 57 54 54 57 57 58 58 68
72 85 75 54 63 56 64 65 90 89 92 92 93 87 78 73 76 76 75 70 65 58 60 53 45 47 48 46 43 47 50 53 49 44 46 48 52 50 52 52 52 52 51 49
78 88 84 95 70 59 84 94 94 91 82 82 79 77 68 67 68 69 69 64 61 66 61 55 53 51 47 42 34 35 36 36 36 38 40 39 42 41 43 46 49 50 52 53
68 73 94 94 92 93 90 92 98 100 100 91 79 70 69 68 67 67 65 63 59 63 63 52 52 58 62 51 50 45 40 36 33 34 35 37 43 46 51 49 54 58 60 64
80 97 95 100 100 100 100 100 99 93 75 67 69 69 65 67 68 69 64 63 61 64 66 61 47 54 58 53 46 56 57 48 40 39 41 45 44 49 54 58 61 64 64 65
100 100 99 98 100 98 98 74 71 70 70 71 71 69 71 72 73 70 67 65 65 67 67 63 57 54 52 50 50 54 58 56 53 52 53 56 56 58 62 55 62 73 78 79
97 100 94 96 90 68 70 74 72 68 68 70 73 75 74 76 68 67 67 67 68 68 68 65 65 65 62 56 54 56 64 65 62 64 64 67 68 63 55 66 72 75 74 75
95 97 95 92 76 72 69 70 69 72 71 75 69 69 69 72 66 67 65 66 70 69 71 74 76 78 77 65 62 64 69 68 68 70 72 75 76 81 80 60 72 74 77 77
97 86 92 80 79 84 82 76 74 69 65 64 64 65 67 72 68 72 76 70 70 73 77 78 80 80 67 67 68 70 71 73 74 73 72 76 76 78 81 83 81 78 76 80
89 83 86 88 86 82 70 68 64 65 66 70 62 66 68 76 77 73 68 66 66 70 72 70 73 72 70 70 73 74 74 74 74 75 77 80 82 84 87 90 90 86 86 85
85 83 79 73 69 66 66 65 71 73 71 70 73 71 67 67 69 70 71 71 73 72 74 76 76 74 73 74 76 79 79 81 81 82 82 82 82 85 87 88 88 89 90 86
70 68 71 69 72 72 71 71 73 75 74 75 73 71 73 75 76 74 73 75 77 78 79 80 80 79 79 81 84 87 87 88 89 89 92 94 98 97 92 94 93 95 96 95
60 62 65 69 74 76 75 73 76 77 79 76 79 80 83 84 83 82 82 82 83 86 86 83 84 85 88 88 88 94 96 97 100 99 99 100 96 95 96 97 96 96 94 91
70 74 75 76 76 81 83 84 84 83 85 87 88 89 90 90 90 88 88 91 92 92 87 84 88 91 90 85 92 96 98 98 95 93 96 98 98 95 94 97 97 97 97 98
78 78 78 78 80 84 87 87 88 92 91 92 93 93 92 91 92 94 94 95 94 92 85 88 93 93 90 92 94 94 96 98 99 99 98 98 98 98 98 98 98 99 99 98
86 85 88 90 90 90 90 90 93 98 95 96 97 90 94 93 87 89 92 81 78 84 86 87 92 98 96 98 98 98 95 90 89 89 91 92 92 92 89 95 97 96 99 95
93 96 96 95 96 95 92 93 91 92 96 96 95 95 92 86 86 90 84 84 82 83 88 99 99 97 94 93 98 92 88 92 98 98 100 100 98 98 98 99 99 99 100 92
95 95 94 96 96 97 92 86 86 89 93 94 96 96 92 90 92 94 87 82 89 97 97 100 96 89 91 98 91 89 92 97 100 100 100 98 100 100 99 98 98 91 91 94
96 95 97 95 93 95 97 90 90 90 87 86 89 89 87 91 90 86 87 90 96 95 96 95 94 94 93 90 91 95 97 98 100 100 100 97 97 98 98 98 97 97 97 97
95 98 96 96 98 92 93 90 92 90 91 94 87 83 85 85 92 91 98 98 98 96 97 99 98 98 96 97 97 97 97 97 98 98 96 97 97 96 96 96 97 98 98 97
95 94 95 92 95 94 94 93 93 95 91 86 86 86 88 93 97 97 96 98 97 97 96 97 98 98 97 96 98 97 96 97 97 96 99 97 97 97 97 97 97 97 97 97
90 84 94 92 85 90 92 94 92 90 91 96 96 92 97 97 96 94 96 98 98 98 97 97 98 100 99 98 96 96 96 97 98 98 98 98 98 98 98 97 97 97 96 97

GFSNGP_925_rhum_219.txt.gz
RH
17 19 26 25 34 31 40 34 61 66 57 28 44 61 41 40 47 52 54 56 58 59 59 60 61 62 63 66 66 65 67 68 69 68 69 70 70 70 70 70 68 68 66 64
25 26 27 31 26 28 26 24 23 21 22 16 19 30 39 43 49 55 63 65 61 59 58 59 60 59 60 61 63 64 65 64 64 63 63 64 64 63 64 67 70 72 72 71
46 37 36 32 26 26 25 24 23 25 19 20 30 36 44 47 51 63 68 66 62 55 52 51 48 46 44 43 45 47 48 48 49 50 49 51 52 52 55 57 61 62 63 65
35 38 42 20 31 26 24 23 21 22 25 29 32 43 49 55 62 63 61 57 50 46 42 41 39 39 35 33 33 34 37 38 41 45 45 46 45 46 49 51 53 56 60 64
46 43 24 25 30 35 32 26 22 25 24 42 68 68 73 57 49 49 49 45 43 41 40 37 38 39 34 28 27 26 30 31 34 40 41 39 36 37 40 46 52 55 55 57
39 49 40 28 37 33 35 36 37 31 37 68 68 62 61 56 50 48 45 42 40 41 40 35 40 41 37 30 30 28 36 38 36 38 38 37 38 38 38 37 35 35 37 39
48 52 34 36 40 35 41 32 46 42 48 64 64 60 61 51 46 43 42 46 46 44 40 42 45 46 42 38 36 41 46 46 46 46 40 36 34 34 33 31 31 32 32 31
55 54 59 43 47 44 50 54 53 53 55 59 65 62 54 46 41 39 42 45 50 46 43 44 47 48 44 40 40 41 43 42 40 38 37 38 37 35 33 32 31 30 29 30
45 45 69 59 62 55 55 60 60 63 62 64 63 57 48 42 39 41 45 45 44 42 41 38 35 38 40 40 39 42 42 41 40 39 39 38 36 36 36 34 34 33 32 33
51 77 95 100 100 99 87 99 96 86 76 67 61 44 39 39 44 45 44 42 39 38 36 35 35 36 38 40 44 47 47 46 44 43 43 44 42 42 42 41 39 39 40 42
94 100 99 100 100 100 100 86 70 53 48 46 45 43 43 45 42 38 38 40 43 45 43 41 40 41 42 45 47 50 50 49 47 46 46 47 48 47 46 47 48 53 59 62
95 97 87 98 100 99 92 72 61 57 53 51 46 46 41 41 42 43 44 46 44 44 43 43 44 46 48 50 53 54 54 54 53 54 53 53 53 51 50 51 54 58 62 70
95 97 96 97 95 86 84 75 57 53 52 57 51 48 44 43 42 46 45 44 44 46 50 50 51 52 52 52 55 57 59 60 59 60 58 56 55 57 62 63 63 62 62 63
98 93 94 92 95 78 68 66 53 46 44 45 45 44 44 45 46 46 46 47 50 52 53 52 53 54 54 56 58 60 62 63 65 64 64 64 66 69 71 72 73 74 70 64
92 91 93 82 64 57 46 43 43 44 45 46 48 49 50 51 51 51 52 53 55 56 55 54 56 58 59 60 63 66 69 70 68 71 74 73 75 73 73 74 73 74 74 70
82 63 58 57 53 51 48 48 50 51 49 51 51 51 54 56 55 54 54 55 58 58 60 61 62 62 64 66 69 72 75 74 73 78 79 76 75 74 72 73 76 79 77 77
71 68 60 61 59 57 56 54 55 55 55 53 54 57 58 57 56 54 56 58 60 62 63 63 64 66 70 74 77 80 82 78 73 74 76 76 82 85 85 85 84 85 84 82
61 61 61 59 60 60 58 57 57 57 58 60 61 60 59 59 59 60 60 61 62 61 60 61 64 73 80 80 84 85 85 82 80 78 78 86 91 95 97 93 93 83 81 85
62 61 61 60 62 63 62 60 61 62 62 62 63 63 63 62 60 60 61 60 59 59 60 62 68 76 80 82 79 83 82 80 83 93 78 69 69 73 77 77 80 84 84 86
58 59 62 63 63 63 64 64 64 64 63 64 65 64 62 61 61 62 62 62 62 62 64 70 78 82 79 85 78 83 85 97 84 71 71 74 77 80 85 86 85 87 87 89
70 70 70 67 67 67 66 66 66 66 66 67 66 64 64 64 65 65 66 64 63 66 73 83 81 90 91 83 90 98 93 81 79 81 86 88 91 91 91 87 87 88 89 94
71 77 80 79 79 77 73 71 73 73 70 70 70 70 70 70 68 69 67 68 69 73 87 90 92 90 90 89 97 89 86 89 91 94 97 96 94 94 94 95 95 95 95 94
65 66 66 65 67 70 73 74 76 79 87 87 85 84 83 81 81 77 75 72 79 88 96 95 93 92 92 97 92 90 96 95 97 96 93 92 98 99 98 98 98 98 97 97
72 73 75 76 81 78 71 70 75 75 79 84 90 87 88 85 81 77 81 84 84 91 96 92 91 95 95 95 95 97 95 94 94 97 92 95 99 95 96 97 96 99 97 97
83 82 80 84 81 75 76 76 75 72 78 70 70 71 75 77 82 86 94 96 90 91 95 92 92 94 95 96 96 94 94 100 100 94 99 100 98 99 99 99 98 99 97 97
80 80 80 86 83 76 78 75 78 80 74 75 74 77 76 84 94 91 92 92 95 94 95 92 93 94 94 98 97 100 100 100 100 100 100 99 99 100 99 98 97 97 97 97
76 75 80 75 74 77 78 89 86 80 80 86 87 85 92 92 90 92 94 96 97 98 97 93 96 100 100 99 100 99 100 100 100 99 100 100 100 100 100 100 98 98 97 98

GFSNGP_925_rhum_222.txt.gz
RH
21 26 30 30 41 43 45 48 52 58 60 46 59 64 55 56 61 61 62 64 68 73 71 65 65 64 65 65 66 66 63 62 62 61 58 58 59 62 64 68 70 72 72 72
28 26 25 34 34 38 35 33 36 35 35 23 39 54 51 53 58 60 65 66 65 63 59 56 53 50 49 50 50 49 47 47 44 44 43 43 45 46 45 48 49 51 49 50
67 40 40 50 42 35 36 31 28 34 27 29 42 51 52 57 57 68 72 70 64 58 52 46 43 39 37 37 38 39 39 38 37 36 35 34 33 36 34 38 41 42 41 43
71 47 61 34 31 31 30 29 28 24 39 38 49 58 59 61 71 71 68 63 57 48 42 38 38 37 31 30 29 30 31 32 34 35 36 35 35 36 35 37 41 42 41 43
67 76 42 29 42 34 34 31 28 28 55 73 75 77 76 63 64 65 61 50 43 39 38 36 38 37 31 28 27 26 33 36 37 36 36 36 35 35 33 35 35 37 37 38
54 64 60 33 41 35 31 43 33 33 72 77 70 83 88 61 56 51 44 42 40 39 35 37 42 42 39 36 36 37 43 44 42 42 43 44 41 37 34 34 34 33 32 31
54 69 47 39 44 36 43 39 44 47 68 73 75 73 66 54 53 46 46 45 46 42 40 44 45 45 44 42 40 40 42 43 43 42 40 39 38 38 38 37 35 34 33 32
61 62 66 45 46 44 59 56 55 62 63 73 68 60 55 50 48 47 49 49 48 44 43 44 43 43 44 43 41 40 40 42 42 42 41 40 39 39 39 38 38 37 36 35
56 60 83 95 92 76 58 66 68 72 70 67 62 55 48 47 46 45 46 46 44 41 40 36 34 34 36 37 39 42 45 47 48 47 46 44 44 44 44 44 43 44 43 42
60 95 100 100 100 97 90 92 83 79 72 61 58 51 46 45 50 50 44 41 40 41 41 42 40 40 40 42 44 46 48 50 51 51 50 48 48 48 50 50 48 49 52 53
100 100 99 100 99 98 97 82 73 66 64 63 66 66 52 49 44 41 42 43 46 47 45 43 43 44 45 47 50 52 54 55 55 55 55 55 55 55 54 55 56 58 63 64
97 99 93 100 99 98 93 95 98 94 79 60 52 48 47 52 46 46 48 46 45 45 46 48 50 51 51 52 52 54 57 59 60 62 62 61 61 60 59 60 62 64 66 68
98 96 96 98 98 100 98 98 92 72 58 59 53 50 47 48 45 46 46 46 48 50 52 53 54 54 54 54 56 57 59 61 64 66 68 68 66 68 70 69 71 72 71 71
97 91 94 95 96 93 85 68 50 49 47 48 48 48 49 51 50 50 51 52 53 54 56 56 56 56 57 59 60 61 64 68 70 71 71 72 76 78 79 83 79 77 76 73
96 96 97 97 84 61 48 47 50 52 52 52 51 51 53 56 57 56 55 54 55 56 58 59 61 62 63 64 65 67 70 72 73 75 82 82 80 80 81 81 82 79 78 78
96 95 92 83 64 57 55 56 60 60 57 55 54 56 57 58 57 56 56 56 59 62 62 64 64 64 65 68 73 76 74 76 74 78 80 83 84 83 79 80 81 82 83 82
90 88 69 68 66 61 60 58 58 59 58 59 60 60 60 59 59 59 60 60 61 62 63 62 61 62 69 82 76 72 84 89 82 79 83 84 85 88 87 90 95 96 98 95
63 60 59 60 65 66 65 60 61 61 63 62 63 63 63 64 66 62 61 61 62 62 60 60 62 66 74 75 80 86 88 86 86 86 86 96 88 80 80 80 83 87 88 90
58 60 61 61 63 64 65 66 64 64 64 64 65 67 66 64 62 62 63 63 64 65 65 64 69 74 76 78 80 84 85 83 86 93 92 74 73 82 84 84 90 92 93 91
68 68 69 68 68 68 68 66 66 66 66 66 67 68 67 66 65 66 66 68 67 66 64 68 77 78 79 85 90 84 84 96 93 82 82 80 88 89 95 90 87 92 95 98
72 73 76 76 75 75 75 73 72 73 73 70 70 71 71 70 71 71 73 74 72 70 71 83 79 86 92 95 95 95 96 83 86 91 94 98 97 97 93 91 96 99 98 99
71 72 71 70 72 74 74 75 76 79 81 83 85 84 84 84 81 80 79 76 73 75 80 86 89 92 96 94 97 96 82 89 87 89 94 90 92 96 99 99 99 99 100 99
74 74 75 78 79 82 79 79 78 79 81 81 83 86 92 92 92 93 89 80 84 92 96 94 95 97 92 97 95 86 86 92 96 90 88 88 96 98 98 97 98 98 97 97
84 85 86 85 87 87 91 81 79 79 77 84 90 80 79 91 91 83 83 83 85 94 97 95 96 99 98 91 89 95 93 89 93 89 88 99 95 95 97 98 98 98 97 96
89 85 83 87 91 88 83 85 84 78 85 80 77 75 76 80 82 84 94 96 92 93 96 97 98 98 92 95 96 90 94 94 95 98 97 96 98 98 99 99 98 98 98 97
83 89 94 92 88 87 89 82 87 95 82 82 82 85 82 81 92 95 94 95 96 97 96 95 95 96 98 95 98 96 96 97 100 100 99 100 100 99 96 98 97 97 97 97
85 77 94 86 84 86 85 93 91 89 87 94 96 92 95 98 96 91 94 95 95 96 97 97 96 96 98 96 96 97 97 98 99 98 100 100 100 100 98 98 98 97 97 97

GFSNGP_925_rhum_225.txt.gz
RH
29 32 36 37 40 50 52 45 55 54 65 52 59 65 63 66 72 72 74 74 76 81 80 72 68 63 60 59 53 46 42 40 41 34 32 30 30 29 28 27 30 32 30 29
30 30 37 31 38 46 42 39 45 42 50 38 44 57 64 66 68 72 75 75 74 70 63 60 54 51 46 44 40 31 30 31 27 24 23 24 25 25 23 23 23 25 26 28
55 40 40 46 42 47 44 40 32 37 27 31 60 54 61 70 66 73 75 73 67 62 54 47 41 39 39 37 34 33 32 31 28 25 24 24 23 23 24 24 26 27 27 29
76 46 57 32 34 31 35 33 32 31 35 38 63 72 69 64 73 76 74 67 60 53 45 40 35 31 30 29 28 27 28 29 29 28 28 28 29 31 31 30 31 32 33 33
69 73 47 33 34 37 36 33 32 37 74 79 77 77 82 76 71 72 70 59 51 42 39 38 35 32 28 29 28 31 36 36 37 38 39 39 38 39 39 38 37 36 34 33
64 58 59 34 38 34 27 35 46 42 75 75 69 76 91 73 64 57 49 45 42 37 37 38 40 37 36 38 37 40 41 42 42 41 41 40 39 38 38 38 38 38 38 36
59 68 55 36 41 34 36 35 46 53 65 68 64 64 72 54 52 48 46 42 39 38 42 44 43 40 41 40 40 40 40 40 40 41 43 43 43 43 42 42 42 42 42 42
62 64 64 82 45 39 50 62 69 70 67 75 70 63 58 53 53 51 52 49 43 44 46 45 42 40 42 40 39 39 41 43 45 47 48 48 47 46 46 46 47 47 47 46
59 58 96 96 92 93 69 76 76 75 67 63 60 57 53 54 53 53 55 51 45 43 41 38 37 37 39 41 42 44 46 48 49 52 53 53 53 52 52 54 54 54 54 54
72 98 98 99 99 92 86 84 70 63 59 53 54 49 50 52 54 53 48 45 42 42 44 44 42 42 43 45 47 49 51 53 56 57 58 59 60 60 59 59 59 61 64 69
100 100 99 100 99 87 80 73 69 62 56 53 54 59 60 61 54 48 48 47 47 48 46 47 48 49 50 52 53 54 55 57 58 60 63 64 64 66 66 65 64 67 68 70
96 98 97 100 99 88 92 95 90 89 96 97 92 85 67 57 52 51 50 47 47 49 51 53 53 54 54 54 55 57 59 60 63 67 68 69 70 69 70 71 70 71 74 73
97 97 97 98 98 98 96 97 96 95 93 83 66 57 53 54 51 50 50 52 54 55 55 56 56 57 57 59 60 61 63 65 70 72 71 72 75 78 83 79 81 80 78 77
97 90 94 92 96 97 96 93 78 62 54 54 54 53 54 56 55 56 57 56 55 56 57 59 61 62 63 64 65 66 68 70 73 69 71 78 83 86 87 89 87 85 77 78
96 94 96 96 94 95 83 68 61 58 56 56 57 59 59 61 62 61 58 57 58 59 61 63 64 65 64 65 69 73 76 74 71 74 78 81 81 84 86 88 88 85 84 83
95 95 94 94 94 86 74 63 65 62 58 60 61 63 62 61 60 60 60 61 63 66 65 65 64 61 62 70 79 78 71 74 82 82 83 84 85 88 89 91 93 94 96 95
90 91 84 80 75 68 64 61 62 63 64 65 66 64 63 64 64 64 62 62 63 62 62 62 61 65 70 74 75 74 81 87 87 82 82 87 90 95 98 96 94 88 86 86
70 64 62 64 67 68 66 66 66 67 67 66 66 66 68 69 70 68 65 65 65 64 64 63 65 69 74 72 72 80 85 86 84 87 89 95 96 88 82 86 89 90 92 91
67 68 68 67 70 71 70 71 70 69 68 69 70 71 71 70 69 68 68 69 70 71 67 67 72 77 77 74 85 89 88 85 92 97 94 85 86 91 92 96 97 95 95 97
68 70 71 70 73 76 77 76 76 75 75 74 73 74 75 74 73 74 74 75 74 72 73 72 81 80 74 76 91 92 90 97 91 89 89 90 90 95 92 86 95 96 98 100
76 75 75 76 76 77 80 77 78 80 82 82 83 83 84 83 81 81 83 85 76 75 78 85 80 82 80 79 90 97 97 89 86 88 88 91 87 84 91 95 95 98 100 98
86 86 84 84 84 85 80 83 86 85 84 82 82 83 87 90 88 87 87 87 80 83 85 88 91 84 95 97 98 96 87 92 84 85 85 84 84 96 98 96 99 100 99 99
86 87 87 90 92 92 86 84 82 83 81 80 88 91 91 89 89 100 95 79 87 92 96 95 97 94 91 97 93 85 93 93 89 90 85 86 98 97 97 98 97 98 98 98
93 91 89 90 87 91 93 87 85 75 77 86 82 80 79 82 87 86 84 88 92 97 97 95 94 96 98 89 87 93 93 92 90 90 97 99 98 99 98 100 99 97 97 97
86 86 93 95 95 92 93 88 82 84 93 85 82 78 80 80 84 84 93 96 96 96 96 98 96 97 94 95 95 96 97 97 96 98 97 99 99 97 93 98 98 98 98 97
90 96 94 87 89 89 89 89 97 93 88 88 89 89 87 88 91 94 96 97 97 97 95 95 96 98 97 95 96 96 96 96 97 97 98 99 100 98 98 98 98 97 98 98
92 83 92 90 88 92 95 94 94 95 95 97 98 94 98 99 96 96 97 95 96 96 97 97 96 95 96 97 96 96 97 98 100 98 98 99 98 98 98 98 98 97 96 94

GFSNGP_925_rhum_228.txt.gz
RH
38 36 39 42 45 53 54 40 58 50 61 44 62 71 69 74 79 81 82 80 81 87 86 80 74 70 63 57 50 42 33 29 30 27 24 20 18 18 18 17 20 22 20 18
34 31 44 37 40 48 46 39 50 45 58 44 49 64 74 75 78 80 81 81 81 80 77 71 64 59 49 39 32 24 25 27 24 21 20 20 21 21 18 18 19 20 21 24
55 37 40 44 37 48 49 47 38 47 30 41 62 57 68 77 74 79 81 81 79 71 65 58 51 45 42 37 31 27 27 26 24 22 22 24 24 24 25 26 26 26 27 27
65 46 62 28 32 28 34 36 38 30 28 38 53 57 64 66 72 80 79 76 67 58 52 45 42 39 37 32 28 26 28 29 30 30 30 30 29 31 33 34 35 36 36 35
66 70 45 34 39 41 40 35 34 29 61 80 81 78 82 73 70 73 71 64 57 49 42 37 32 31 28 29 30 33 35 36 36 36 36 36 36 37 38 39 39 39 39 40
71 65 65 31 30 32 27 39 33 32 71 77 68 72 83 84 76 71 62 56 50 42 40 36 34 30 33 36 38 41 40 41 40 39 40 42 43 44 44 44 45 45 46 45
46 60 54 38 39 32 37 32 46 42 64 66 58 61 82 71 66 57 52 48 41 40 40 41 41 38 38 39 39 40 40 41 42 44 46 48 48 48 49 49 49 50 51 50
62 64 64 92 45 38 55 70 66 61 65 77 74 71 67 59 55 51 50 49 43 46 47 46 41 38 42 40 41 41 43 45 46 49 51 53 54 54 54 56 57 56 57 57
55 57 96 91 91 90 87 78 79 74 69 65 65 62 58 56 54 54 52 52 47 48 49 46 41 38 40 44 44 45 47 49 52 54 56 59 60 60 61 62 62 62 63 66
86 98 99 98 95 89 77 80 67 61 59 56 59 56 56 55 57 57 52 50 44 43 46 46 43 44 47 49 50 51 52 54 56 58 60 61 63 66 67 67 68 68 72 74
100 100 100 98 93 82 77 65 55 51 51 52 54 55 55 56 54 53 54 49 45 46 47 50 50 50 51 52 52 54 56 57 59 62 66 69 70 70 71 72 73 73 73 75
96 97 96 99 99 90 90 90 85 86 88 77 73 80 79 80 67 59 55 51 50 51 53 55 53 54 54 55 58 59 60 62 66 72 73 68 71 73 72 78 80 79 80 78
96 97 96 97 97 96 95 96 91 92 89 94 95 91 82 77 64 61 53 54 55 56 56 57 58 59 61 62 64 64 66 68 73 73 68 70 77 82 89 76 72 84 83 83
96 95 93 94 96 96 94 96 95 96 93 79 69 64 64 61 59 59 59 58 57 58 60 62 63 64 65 65 66 70 72 74 75 68 70 78 82 84 84 89 92 89 76 86
95 95 96 95 93 95 95 91 82 76 70 64 62 63 63 63 63 63 61 60 61 62 65 65 66 65 62 64 69 77 80 75 72 78 83 84 80 81 84 88 93 93 90 88
94 94 93 93 94 92 81 70 70 67 62 63 64 65 65 64 64 65 64 64 65 68 66 65 63 61 64 73 77 74 71 79 87 86 85 80 82 89 94 97 99 96 94 90
87 90 88 90 88 85 79 69 65 64 65 66 68 67 67 67 66 66 65 66 65 64 64 63 63 66 69 74 74 70 74 82 89 84 83 89 94 95 100 96 94 92 91 86
84 84 76 69 70 69 68 68 68 68 69 70 69 69 70 72 74 71 69 68 68 67 66 66 67 71 78 74 72 82 85 90 88 91 94 94 90 93 89 89 94 96 92 90
69 69 67 67 72 73 73 75 76 75 75 74 73 75 74 74 74 74 73 74 73 75 69 71 72 78 80 73 86 89 92 92 96 89 91 90 92 87 89 91 93 93 93 95
73 72 71 72 73 77 79 80 79 79 81 81 80 80 81 80 81 81 80 82 78 76 77 78 88 88 76 78 79 90 94 98 92 86 87 89 86 88 86 92 96 93 94 94
80 78 80 81 82 84 84 89 91 90 86 84 85 87 89 87 86 86 87 90 76 78 84 86 83 85 82 78 82 96 98 92 91 89 87 83 82 83 94 94 96 98 99 100
90 93 92 93 95 93 91 88 86 87 84 83 85 90 93 91 87 88 86 90 79 86 89 88 93 86 94 96 98 98 89 92 96 82 82 82 86 97 97 98 100 100 99 99
94 94 92 94 99 97 86 85 83 78 80 86 89 87 87 86 84 97 97 76 91 90 97 96 96 94 92 97 93 85 94 94 88 90 84 92 98 99 100 100 100 100 100 99
93 92 95 93 87 89 95 86 82 83 87 84 82 80 81 84 85 80 82 91 94 97 98 96 94 98 98 91 88 92 93 96 94 93 96 99 99 100 98 96 99 97 97 98
93 93 95 92 95 93 93 90 90 90 91 86 85 82 80 82 91 89 93 96 97 97 95 98 96 98 95 94 94 95 96 96 95 99 98 97 99 99 97 99 98 98 98 97
94 98 99 86 91 94 96 96 100 96 94 95 94 86 85 90 93 97 95 98 98 98 96 95 95 99 98 96 98 96 96 96 98 96 94 96 96 98 98 97 99 97 96 96
93 86 96 92 91 96 98 96 97 97 99 100 100 90 98 98 98 96 98 95 95 95 96 96 96 96 97 99 97 96 96 97 99 97 100 100 99 98 98 97 97 100 100 94